Flag for Nepal Weather past 2 weeks in Kathmandu, Nepal

Now
84 °F

Scattered clouds.


Feels Like: 87 °F
Forecast: 64 / 78 °F
Wind: 7 mph from West

Location: Kathmandu Airport

Current Time: Jun 30, 2015 at 2:20:33 PM

Latest Report: Jun 30, 2015 at 1:35 PM


Visibility: 5 mi

Pressure: 29.89 "Hg

Humidity: 58%

Dew point: 68 °F

Location of KathmanduLocation

Historic Weather in Kathmandu — Graph

°F

Kathmandu temperature yesterday

Maximum temperature yesterday: 82 °F (at 12:35 PM)
Minimum temperature yesterday: 72 °F (at 11:35 PM)
Average temperature yesterday: 78 °F

Past Weeks' High & Low Weather Summary

 TemperatureHumidityPressure
High86 °F (Jun 18, 12:35 PM)100% (Jun 25, 6:35 AM)30.09 "Hg (Jun 25, 6:35 AM)
Low66 °F (Jun 16, 5:35 AM)48% (Jun 15, 1:35 PM)29.62 "Hg (Jun 23, 3:35 PM)
Average75 °F80%29.79 "Hg
* Reported Jun 15 11:35 AM — Jun 30 10:35 AM, Kathmandu, Weather by CustomWeather, © 2015

Note: Actual official high and low records may vary slightly from our data, if they occured in-between our weather recording intervals... More about our weather records

Advertising

Kathmandu weather history for previous 24 hours

 ConditionsComfort  
Time TempWeatherWind HumidityBarometerVisibility
10:35 AM
Tue, Jun 30
77 °FRain. Scattered clouds.5 mph79%29.95 "Hg4 mi
9:35 AM81 °FRain. Scattered clouds.3 mph70%29.95 "Hg4 mi
8:35 AM77 °FScattered clouds.3 mph74%29.98 "Hg4 mi
7:35 AM75 °FFog.3 mph78%29.95 "Hg3 mi
6:35 AM72 °FLight rain. Broken clouds.2 mph88%29.95 "Hg2 mi
5:35 AM70 °FMostly cloudy.No wind94%29.92 "Hg4 mi
4:35 AM70 °FPartly cloudy.3 mph94%29.92 "Hg4 mi
3:35 AM70 °FPartly cloudy.No wind94%29.92 "Hg4 mi
2:35 AM70 °FPartly cloudy.No wind94%29.92 "Hg4 mi
12:35 AM72 °FPartly cloudy.No wind88%29.95 "Hg4 mi
11:35 PM
Mon, Jun 29
72 °FPartly cloudy.No wind88%29.98 "Hg4 mi
9:35 PM73 °FPassing clouds.5 mph83%29.95 "Hg4 mi
8:35 PM75 °FPassing clouds.5 mph74%29.95 "Hg4 mi
7:35 PM75 °FScattered clouds.6 mph78%29.95 "Hg5 mi
6:35 PM77 °FBroken clouds.8 mph69%29.92 "Hg5 mi
5:35 PM79 °FBroken clouds.6 mph70%29.89 "Hg5 mi
4:35 PM79 °FBroken clouds.12 mph70%29.89 "Hg5 mi
3:35 PM81 °FScattered clouds.10 mph66%29.92 "Hg5 mi
2:35 PM81 °FScattered clouds.10 mph66%29.92 "Hg5 mi
Weather by CustomWeather, © 2015

See weather overviewHow to use our weather pages